Regional Weather Roundup
Issued by NWS

Home | Current Version | Previous Version | Text Only | Print | Product List | Glossary Off
Versions: 1 2 3 4 5 6 7 8 9 10 11 12 13 14 15 16 17 18 19 20 21 22 23 24 25 26 27 28 29 30 31 32 33 34 35 36 37 38 39 40 41 42 43 44 45 46 47 48 49 50

000
ASUS43 KOAX 210002
RWRNE

WEATHER ROUNDUP FOR NEBRASKA
NATIONAL WEATHER SERVICE OMAHA NE
700 PM CDT SUN APR 20 2014

NOTES: SATELLITE DATA IS BEING USED TO AUGMENT CLOUD COVER ABOVE
       12000 FEET.
       "FAIR" INDICATES FEW OR NO CLOUDS BELOW 12,000 FEET WITH NO
       SIGNIFICANT WEATHER AND/OR OBSTRUCTIONS TO VISIBILITY.

  * THESE STATIONS DO NOT REPORT WEATHER SUCH AS RAIN...SNOW OR FOG.

NEZ001>004-019>022-054>056-210100-
NEBRASKA PANHANDLE

CITY           SKY/WX    TMP DP  RH WIND       PRES   REMARKS
SCOTTSBLUFF    MOSUNNY   77  28  16 N16       29.95R
6HR MIN TEMP:  74; 6HR MAX TEMP:  81;

ALLIANCE       MOSUNNY   73  30  20 N16G26    29.93R
6HR MIN TEMP:  72; 6HR MAX TEMP:  78;

CHADRON        PTSUNNY   71  40  32 N21G26    29.95R
6HR MIN TEMP:  71; 6HR MAX TEMP:  79;

KIMBALL        MOSUNNY   70  22  16 N9        29.99R
SIDNEY         SUNNY     75  33  21 N15G22    29.96R
6HR MIN TEMP:  67; 6HR MAX TEMP:  79;

$$

NEZ057>060-069>072-079>082-210100-
SOUTHWEST NEBRASKA

CITY           SKY/WX    TMP DP  RH WIND       PRES   REMARKS
NORTH PLATTE   MOSUNNY   74  47  38 S7        29.89F
6HR MIN TEMP:  65; 6HR MAX TEMP:  76; 6HR PCP:  0.01;

IMPERIAL       MOSUNNY   74  44  34 N3        29.91S
6HR MIN TEMP:  67; 6HR MAX TEMP:  77; 6HR PCP: TRACE;

LEXINGTON      CLOUDY    74  53  47 S12       29.89F
MCCOOK         CLOUDY    70  51  51 S10       29.90F
6HR MIN TEMP:  68; 6HR MAX TEMP:  79;

OGALLALA       SUNNY     74  42  31 S5        29.91S
$$

NEZ005>010-023>029-035>040-094-210100-
NORTH CENTRAL NEBRASKA

CITY           SKY/WX    TMP DP  RH WIND       PRES   REMARKS
VALENTINE      RAIN      71  40  32 NE8G39    29.86R
6HR MIN TEMP:  72; 6HR MAX TEMP:  82; 6HR PCP: TRACE;

AINSWORTH      MOSUNNY   78  42  27 S9        29.86F
BROKEN BOW     MOSUNNY   74  51  44 S10       29.89S
6HR MIN TEMP:  67; 6HR MAX TEMP:  76; 6HR PCP:  0.02;

O`NEILL        MOSUNNY   78  45  31 S9        29.87S
ORD            PTSUNNY   75  51  43 S14       29.87S
6HR MIN TEMP:  73; 6HR MAX TEMP:  79;

THEDFORD       MOSUNNY   79  44  29 S12G22    29.89S
$$

NEZ041-046>049-061>064-073>077-083>087-210100-
SOUTH CENTRAL NEBRASKA

CITY           SKY/WX    TMP DP  RH WIND       PRES   REMARKS
GRAND ISLAND   CLOUDY    74  53  48 S16       29.90S
6HR MIN TEMP:  71; 6HR MAX TEMP:  80; 6HR PCP: TRACE;

AURORA         CLOUDY    72  54  54 S13       29.90S
HASTINGS       CLOUDY    72  51  47 S10       29.90F
6HR MIN TEMP:  71; 6HR MAX TEMP:  78; 6HR PCP: TRACE;

HEBRON         PTSUNNY   73  52  46 S15G21    29.93S
HOLDREGE       CLOUDY    71  51  48 S16G22    29.90S
KEARNEY *      CLOUDY    73  52  46 S20G25    29.90S
YORK           PTSUNNY   64  63  94 E8        29.92S
$$

NEZ011>018-030>034-042>045-210100-
NORTHEAST NEBRASKA

CITY           SKY/WX    TMP DP  RH WIND       PRES   REMARKS
NORFOLK        CLOUDY    69  59  70 S8        29.88F
6HR MIN TEMP:  68; 6HR MAX TEMP:  82; 6HR PCP:  0.09;

ALBION         PTSUNNY   75  48  37 S10       29.89S
BLAIR          CLOUDY    67  55  66 SW15      29.93R
COLUMBUS *     PTSUNNY   70  52  52 S15G21    29.92R
FREMONT        LGT RAIN  64  57  80 S14G23    29.93F
$$

NEZ050>053-065>068-078-088>093-210100-
SOUTHEAST NEBRASKA

CITY           SKY/WX    TMP DP  RH WIND       PRES   REMARKS
LINCOLN        CLOUDY    66  59  78 NE5       29.94F
6HR MIN TEMP:  64; 6HR MAX TEMP:  83; 6HR PCP:  0.59;

OMAHA EPPLEY   LGT RAIN  70  56  61 S12       29.94R
6HR MIN TEMP:  70; 6HR MAX TEMP:  85; 6HR PCP: TRACE;

BEATRICE       PTSUNNY   74  54  49 S17       29.94S
NEBRASKA CITY  RAIN      63  58  81 W14       29.96R
PLATTSMOUTH    TSTM      64  57  78 E5        29.96S
$$

NEZ044-045-051>053-067-210100-
OMAHA AREA

CITY           SKY/WX    TMP DP  RH WIND       PRES   REMARKS
OMAHA EPPLEY   LGT RAIN  70  56  61 S12       29.94R
6HR MIN TEMP:  70; 6HR MAX TEMP:  85; 6HR PCP: TRACE;

BLAIR          CLOUDY    67  55  66 SW15      29.93R
FREMONT        LGT RAIN  64  57  80 S14G23    29.93F
MILLARD        LGT RAIN  66  56  68 W9        29.93F
PLATTSMOUTH    TSTM      64  57  78 E5        29.96S
WAHOO          LGT RAIN  63  55  75 S8        29.95F
$$



USA.gov is the U.S. government's official web portal to all federal, state and local government web resources and services.